User: anonymous   Login
Location: Albany
(35.0000°S, 118.0000°E)
Time: 01:11:48
(UTC-04:00)
Language:

Cosmos 1346 Rocket - Orbit

View from above orbital plane
View from above orbital plane
View from above satellite
View from above satellite

Ground track
Ground track

The orbit data is extracted from the following two-line orbital elements,

1 13121U 82027B   14295.15074600  .00004334  00000-0  29666-3 0  5285
2 13121 081.1673 150.8825 0029148 125.9569 234.4365 15.05552929770998
Epoch (UTC): 22 October 2014 03:37:04
Eccentricity: 0.0029148
inclination: 81.1673°
perigee height: 529 km
apogee height: 570 km
right ascension of ascending node: 150.8825°
argument of perigee: 125.9569°
revolutions per day: 15.05552929
mean anomaly at epoch: 234.4365°
orbit number at epoch: 77099

The dashed part of the orbit path shows where the satellite is in the earth's shadow,  

DLR